Weather History for Fulton, NY

Change the Weather History Date:

Thursday, January 30, 2014

  Actual Average (KSYR) Record (KSYR)
Temperature  
Mean Temperature 18 °F 24 °F  
Max Temperature 28 °F 32 °F 63 °F (2013)
Min Temperature 7 °F 16 °F -16 °F (1948)
Degree Days  
Heating Degree Days 48 41  
Month to date heating degree days 1245  
Since 1 July heating degree days 3698  
Cooling Degree Days 0 0  
Month to date cooling degree days 0  
Year to date cooling degree days 0  
Moisture  
Dew Point 2 °F    
Average Humidity 47    
Maximum Humidity 64    
Minimum Humidity 34    
Precipitation  
Precipitation 0.00 in 0.07 in 2.30 in (1934)
Month to date precipitation 2.43  
Year to date precipitation 2.43  
Snow  
Snow 0.00 in 1.10 in 17.20 in (1966)
Month to date snowfall 32.9  
Since 1 July snowfall 75.5  
Snow Depth -    
Sea Level Pressure  
Sea Level Pressure 30.19 in    
Wind  
Wind Speed 11 mph (South)    
Max Wind Speed 17 mph    
Max Gust Speed 30 mph    
Visibility 10 miles    
Events      
T = Trace of Precipitation, MM = Missing Value Source: NWS Daily Summary

Daily Weather History Graph

Daily Weather History Graph

Search for Another Location

Airport:

Trip Planner

Search our weather history database for the weather conditions in past years. The results will help you decide how hot, cold, wet, or windy it might be!

Date:

Astronomy

Jan. 30, 2014 Rise Set
Actual Time 7:23 AM EST 5:14 PM EST
Civil Twilight 6:53 AM EST 5:45 PM EST
Nautical Twilight 6:18 AM EST 6:19 PM EST
Astronomical Twilight 5:45 AM EST 6:53 PM EST
Moon 6:46 AM EST (1/30) 5:25 PM EST (1/30)
Length of Visible Light 10h 52m
Length of Day
9h 51m
Waning Crescent, 0% of the Moon is Illuminated
Jan 30
Waning Crescent
Jan 30
New
Feb 6
First Quarter
Feb 14
Full
Feb 22
Last Quarter

Hourly Weather History & Observations

Time (EST) Temp. Windchill Dew Point Humidity Pressure Visibility Wind Dir Wind Speed Gust Speed Precip Events Conditions
12:54 AM 12.9 °F -2.2 °F 1.9 °F 62% 30.26 in 10.0 mi SW 13.8 mph - N/A   Overcast
1:54 AM 12.9 °F -0.9 °F 1.9 °F 62% 30.27 in 10.0 mi SSW 11.5 mph - N/A   Overcast
2:54 AM 12.0 °F -1.3 °F -0.0 °F 59% 30.28 in 10.0 mi SSW 10.4 mph - N/A   Mostly Cloudy
3:54 AM 10.9 °F -1.8 °F -0.9 °F 59% 30.29 in 10.0 mi SW 9.2 mph - N/A   Scattered Clouds
4:54 AM 10.9 °F -1.8 °F -0.9 °F 59% 30.29 in 10.0 mi SSW 9.2 mph - N/A   Partly Cloudy
5:54 AM 10.0 °F -0.9 °F -2.0 °F 58% 30.30 in 10.0 mi South 6.9 mph - N/A   Clear
6:54 AM 10.0 °F -1.9 °F -2.0 °F 58% 30.32 in 10.0 mi South 8.1 mph - N/A   Clear
7:54 AM 7.0 °F -5.7 °F -2.9 °F 64% 30.34 in 10.0 mi South 8.1 mph - N/A   Clear
8:54 AM 12.0 °F 0.5 °F -2.0 °F 53% 30.35 in 10.0 mi South 8.1 mph - N/A   Clear
9:54 AM 16.0 °F 0.1 °F 1.0 °F 52% 30.34 in 10.0 mi South 17.3 mph - N/A   Clear
10:54 AM 19.0 °F 6.8 °F 1.9 °F 47% 30.33 in 10.0 mi South 11.5 mph - N/A   Clear
11:54 AM 21.0 °F 9.9 °F 3.0 °F 46% 30.30 in 10.0 mi South 10.4 mph - N/A   Clear
12:54 PM 23.0 °F 13.9 °F 5.0 °F 46% 30.24 in 10.0 mi SSE 8.1 mph - N/A   Clear
1:54 PM 25.0 °F 13.1 °F 5.0 °F 43% 30.20 in 10.0 mi South 13.8 mph 18.4 mph N/A   Clear
2:54 PM 27.0 °F 16.1 °F 1.9 °F 34% 30.16 in 10.0 mi South 12.7 mph - N/A   Clear
3:54 PM 28.0 °F 20.0 °F 3.0 °F 34% 30.14 in 10.0 mi SSE 8.1 mph - N/A   Clear
4:54 PM 27.0 °F 21.6 °F 1.9 °F 34% 30.12 in 10.0 mi Variable 4.6 mph - N/A   Clear
5:54 PM 26.1 °F 18.4 °F 3.0 °F 37% 30.09 in 10.0 mi SE 6.9 mph - N/A   Clear
6:54 PM 26.1 °F 19.4 °F 3.0 °F 37% 30.06 in 10.0 mi SSE 5.8 mph - N/A   Clear
7:54 PM 26.1 °F 17.6 °F 3.9 °F 39% 30.02 in 10.0 mi SE 8.1 mph - N/A   Clear
8:54 PM 27.0 °F 18.0 °F 5.0 °F 39% 29.96 in 10.0 mi SSE 9.2 mph - N/A   Scattered Clouds
9:54 PM 27.0 °F 16.7 °F 5.0 °F 39% 29.94 in 10.0 mi South 11.5 mph 18.4 mph N/A   Mostly Cloudy
10:54 PM 28.0 °F 17.0 °F 3.9 °F 36% 29.93 in 10.0 mi South 13.8 mph 25.3 mph N/A   Overcast
11:54 PM 27.0 °F 14.3 °F 5.0 °F 39% 29.96 in 10.0 mi South 17.3 mph 29.9 mph N/A   Scattered Clouds